Location: Saint-Palais-sur-Mer
(45.6429°N, 1.0859°W)
Time: 00:09:07
(UTC+01:00)

Tiros 1 despin weight - Pass Details

Date: 17 February 2026
Orbit: 556 x 593 km, 48.2° (Epoch: 13 March)

Event Time Altitude Azimuth Distance (km) Brightness Sun altitude
Rises 18:03:20 0° 262° (W) 2,733 ? 4.2°
Reaches altitude 10° 18:05:35 10° 265° (W) 1,837 ? 3.9°
Maximum altitude 18:09:46 69° 349° (N) 596 ? 3.2°
Drops below altitude 10° 18:13:57 10° 73° (ENE) 1,839 ? 2.5°
Sets 18:16:13 0° 76° (ENE) 2,737 ? 2.1°
